| time (UTC) | temp C | wind direction | speed KPH | gust KPH | rain 1hr cm | rain 24hr cm | rain mn cm | humidity % | barometer mb |
| 20260504215005 | 10 | 49 | 8.0 | 14.5 | 0.00 | 0.00 | 0.00 | 44 | 1009.9 |
| 20260504214505 | 10 | 27 | 9.7 | 19.3 | 0.00 | 0.00 | 0.00 | 45 | 1010.0 |
| 20260504214005 | 10 | 9 | 6.4 | 19.3 | 0.00 | 0.00 | 0.00 | 45 | 1010.0 |
| 20260504213505 | 10 | 28 | 12.9 | 19.3 | 0.00 | 0.00 | 0.00 | 44 | 1010.1 |
| 20260504212505 | 9 | 32 | 12.9 | 22.5 | 0.00 | 0.00 | 0.00 | 46 | 1010.1 |
| 20260504211505 | 9 | 22 | 12.9 | 19.3 | 0.00 | 0.00 | 0.00 | 46 | 1010.2 |
| 20260504211006 | 9 | 23 | 11.3 | 25.7 | 0.00 | 0.00 | 0.00 | 45 | 1010.3 |
| 20260504205505 | 9 | 26 | 14.5 | 20.9 | 0.00 | 0.00 | 0.00 | 46 | 1010.2 |
| 20260504205005 | 9 | 2 | 12.9 | 20.9 | 0.00 | 0.00 | 0.00 | 45 | 1010.2 |
| 20260504204505 | 9 | 20 | 11.3 | 20.9 | 0.00 | 0.00 | 0.00 | 45 | 1010.2 |
| 20260504204005 | 9 | 12 | 14.5 | 20.9 | 0.00 | 0.00 | 0.00 | 45 | 1010.1 |
| 20260504203505 | 9 | 0 | 11.3 | 24.1 | 0.00 | 0.00 | 0.00 | 44 | 1010.0 |
| 20260504203005 | 10 | 4 | 17.7 | 24.1 | 0.00 | 0.00 | 0.00 | 43 | 1009.9 |
| 20260504202005 | 9 | 16 | 14.5 | 24.1 | 0.00 | 0.00 | 0.00 | 45 | 1010.0 |
| 20260504201005 | 9 | 1 | 16.1 | 25.7 | 0.00 | 0.00 | 0.00 | 45 | 1009.9 |
| 20260504200005 | 9 | 359 | 14.5 | 20.9 | 0.00 | 0.00 | 0.00 | 50 | 1009.8 |
| 20260504195505 | 9 | 353 | 12.9 | 20.9 | 0.00 | 0.00 | 0.00 | 51 | 1009.8 |
| 20260504195005 | 9 | 355 | 12.9 | 19.3 | 0.00 | 0.00 | 0.00 | 51 | 1009.7 |
| 20260504194505 | 9 | 5 | 12.9 | 19.3 | 0.00 | 0.00 | 0.00 | 50 | 1009.7 |
| 20260504194005 | 10 | 18 | 11.3 | 19.3 | 0.00 | 0.00 | 0.00 | 49 | 1009.7 |
| 20260504193505 | 10 | 13 | 11.3 | 19.3 | 0.00 | 0.00 | 0.00 | 48 | 1009.7 |
| 20260504193005 | 10 | 15 | 9.7 | 19.3 | 0.00 | 0.00 | 0.00 | 47 | 1009.7 |
| 20260504192505 | 10 | 20 | 4.8 | 16.1 | 0.00 | 0.00 | 0.00 | 47 | 1009.6 |
| 20260504191505 | 10 | 23 | 6.4 | 19.3 | 0.00 | 0.00 | 0.00 | 46 | 1009.7 |
| 20260504191005 | 10 | 15 | 14.5 | 19.3 | 0.00 | 0.00 | 0.00 | 45 | 1009.6 |
| 20260504190005 | 10 | 60 | 3.2 | 16.1 | 0.00 | 0.00 | 0.00 | 43 | 1009.6 |
| 20260504185505 | 11 | 58 | 8.0 | 19.3 | 0.00 | 0.00 | 0.00 | 43 | 1009.5 |
| 20260504185005 | 11 | 23 | 4.8 | 19.3 | 0.00 | 0.00 | 0.00 | 42 | 1009.4 |
| 20260504184505 | 11 | 57 | 6.4 | 20.9 | 0.00 | 0.00 | 0.00 | 41 | 1009.4 |
| 20260504183505 | 10 | 16 | 11.3 | 22.5 | 0.00 | 0.00 | 0.00 | 43 | 1009.5 |
| 20260504183005 | 10 | 33 | 11.3 | 22.5 | 0.00 | 0.00 | 0.00 | 44 | 1009.4 |
| 20260504182504 | 10 | 337 | 9.7 | 22.5 | 0.00 | 0.00 | 0.00 | 43 | 1009.4 |
| 20260504182005 | 11 | 1 | 14.5 | 32.2 | 0.00 | 0.00 | 0.00 | 44 | 1009.5 |
| 20260504181505 | 10 | 26 | 14.5 | 32.2 | 0.00 | 0.00 | 0.00 | 46 | 1009.5 |
| 20260504181005 | 10 | 332 | 8.0 | 19.3 | 0.00 | 0.00 | 0.00 | 45 | 1009.5 |
| 20260504180005 | 10 | 2 | 8.0 | 20.9 | 0.00 | 0.00 | 0.00 | 45 | 1009.6 |
| 20260504175505 | 10 | 352 | 11.3 | 19.3 | 0.00 | 0.00 | 0.00 | 46 | 1009.7 |
| 20260504174505 | 10 | 15 | 9.7 | 19.3 | 0.00 | 0.00 | 0.00 | 44 | 1009.7 |
| 20260504174004 | 10 | 42 | 8.0 | 19.3 | 0.00 | 0.00 | 0.00 | 44 | 1009.8 |
| 20260504173505 | 10 | 25 | 8.0 | 22.5 | 0.00 | 0.00 | 0.00 | 44 | 1009.8 |
| 20260504172505 | 10 | 54 | 11.3 | 19.3 | 0.00 | 0.00 | 0.00 | 45 | 1009.7 |
| 20260504171505 | 10 | 46 | 9.7 | 22.5 | 0.00 | 0.00 | 0.00 | 46 | 1009.7 |
| 20260504171005 | 10 | 37 | 14.5 | 22.5 | 0.00 | 0.00 | 0.00 | 46 | 1009.8 |
| 20260504151005 | 8 | 85 | 14.5 | 24.1 | 0.00 | 0.00 | 0.00 | 54 | 1010.0 |
| 20260504141005 | 7 | 101 | 11.3 | 16.1 | 0.00 | 0.00 | 0.00 | 54 | 1010.1 |
| 20260504082004 | 10 | 238 | 8.0 | 12.9 | 0.00 | 0.00 | 0.00 | 45 | 1003.9 |
| 20260504081504 | 9 | 220 | 8.0 | 14.5 | 0.00 | 0.00 | 0.00 | 46 | 1003.9 |
| 20260504050004 | 11 | 198 | 12.9 | 14.5 | 0.00 | 0.00 | 0.00 | 42 | 1004.3 |
| 20260504045505 | 11 | 232 | 6.4 | 19.3 | 0.00 | 0.00 | 0.00 | 40 | 1004.4 |
| 20260504043504 | 12 | 183 | 11.3 | 16.1 | 0.00 | 0.00 | 0.00 | 37 | 1004.3 |
| 20260504043005 | 12 | 166 | 14.5 | 16.1 | 0.00 | 0.00 | 0.00 | 36 | 1004.3 |
| 20260504042504 | 13 | 176 | 11.3 | 14.5 | 0.00 | 0.00 | 0.00 | 36 | 1004.3 |
| 20260504042005 | 12 | 175 | 11.3 | 14.5 | 0.00 | 0.00 | 0.00 | 36 | 1004.3 |
| 20260504041504 | 12 | 175 | 11.3 | 14.5 | 0.00 | 0.00 | 0.00 | 37 | 1004.2 |
| 20260504041004 | 12 | 168 | 12.9 | 14.5 | 0.00 | 0.00 | 0.00 | 37 | 1004.2 |
| 20260504040005 | 13 | 147 | 8.0 | 9.7 | 0.00 | 0.00 | 0.00 | 36 | 1004.1 |
| 20260504035504 | 13 | 107 | 1.6 | 9.7 | 0.00 | 0.00 | 0.00 | 35 | 1004.2 |
| 20260504035004 | 13 | 68 | 0.0 | 4.8 | 0.00 | 0.00 | 0.00 | 35 | 1004.2 |
| 20260504034504 | 13 | 66 | 0.0 | 16.1 | 0.00 | 0.00 | 0.00 | 35 | 1004.1 |
| 20260504034004 | 13 | 66 | 4.8 | 16.1 | 0.00 | 0.00 | 0.00 | 35 | 1004.0 |
| 20260504033505 | 13 | 87 | 6.4 | 16.1 | 0.00 | 0.00 | 0.00 | 36 | 1003.9 |
| 20260504033004 | 14 | 196 | 9.7 | 11.3 | 0.00 | 0.00 | 0.00 | 34 | 1003.7 |
| 20260504032504 | 15 | 199 | 9.7 | 11.3 | 0.00 | 0.00 | 0.00 | 33 | 1003.7 |
| 20260504032004 | 15 | 201 | 9.7 | 11.3 | 0.00 | 0.00 | 0.00 | 32 | 1003.6 |
| 20260504031504 | 15 | 201 | 6.4 | 9.7 | 0.00 | 0.00 | 0.00 | 31 | 1003.6 |
| 20260504025504 | 16 | 279 | 3.2 | 4.8 | 0.00 | 0.00 | 0.00 | 29 | 1003.5 |
| 20260504025005 | 16 | 281 | 3.2 | 4.8 | 0.00 | 0.00 | 0.00 | 28 | 1003.5 |
| 20260504024004 | 17 | 272 | 4.8 | 4.8 | 0.00 | 0.00 | 0.00 | 28 | 1003.4 |
| 20260504023005 | 17 | 274 | 0.0 | 11.3 | 0.00 | 0.00 | 0.00 | 29 | 1003.4 |
| 20260504022505 | 17 | 271 | 4.8 | 11.3 | 0.00 | 0.00 | 0.00 | 28 | 1003.3 |
| 20260504022004 | 17 | 267 | 9.7 | 12.9 | 0.00 | 0.00 | 0.00 | 27 | 1003.4 |
| 20260504021504 | 17 | 264 | 9.7 | 12.9 | 0.00 | 0.00 | 0.00 | 27 | 1003.3 |
| 20260504021004 | 18 | 266 | 9.7 | 14.5 | 0.00 | 0.00 | 0.00 | 27 | 1003.3 |
| 20260504015504 | 18 | 273 | 11.3 | 19.3 | 0.00 | 0.00 | 0.00 | 26 | 1003.4 |
| 20260504015005 | 18 | 280 | 11.3 | 19.3 | 0.00 | 0.00 | 0.00 | 25 | 1003.4 |
| 20260504014005 | 20 | 277 | 11.3 | 20.9 | 0.00 | 0.00 | 0.00 | 24 | 1003.5 |
| 20260504013504 | 20 | 266 | 14.5 | 20.9 | 0.00 | 0.00 | 0.00 | 23 | 1003.5 |
| 20260504013004 | 20 | 267 | 14.5 | 20.9 | 0.00 | 0.00 | 0.00 | 23 | 1003.5 |
| 20260504012004 | 20 | 257 | 16.1 | 20.9 | 0.00 | 0.00 | 0.00 | 22 | 1003.5 |
| 20260504011504 | 20 | 277 | 14.5 | 22.5 | 0.00 | 0.00 | 0.00 | 22 | 1003.6 |
| 20260504011004 | 20 | 290 | 14.5 | 22.5 | 0.00 | 0.00 | 0.00 | 23 | 1003.7 |
| 20260504010004 | 21 | 296 | 16.1 | 22.5 | 0.00 | 0.00 | 0.00 | 23 | 1003.8 |
| 20260504005504 | 20 | 281 | 11.3 | 22.5 | 0.00 | 0.00 | 0.00 | 23 | 1003.8 |
| 20260504005004 | 21 | 277 | 17.7 | 24.1 | 0.00 | 0.00 | 0.00 | 22 | 1003.9 |
| 20260504004504 | 21 | 281 | 14.5 | 24.1 | 0.00 | 0.00 | 0.00 | 23 | 1004.0 |
| 20260504004004 | 21 | 290 | 14.5 | 24.1 | 0.00 | 0.00 | 0.00 | 23 | 1004.0 |
| 20260504003504 | 21 | 285 | 19.3 | 24.1 | 0.00 | 0.00 | 0.00 | 22 | 1004.1 |
| 20260504003004 | 21 | 286 | 19.3 | 24.1 | 0.00 | 0.00 | 0.00 | 22 | 1004.1 |
| 20260504002504 | 21 | 264 | 14.5 | 24.1 | 0.00 | 0.00 | 0.00 | 23 | 1004.1 |
| 20260504001504 | 21 | 298 | 16.1 | 22.5 | 0.00 | 0.00 | 0.00 | 23 | 1004.2 |
| 20260504001004 | 21 | 279 | 14.5 | 27.4 | 0.00 | 0.00 | 0.00 | 22 | 1004.3 |
| 20260504000004 | 21 | 278 | 19.3 | 25.7 | 0.00 | 0.00 | 0.00 | 22 | 1004.4 |
| 20260503235504 | 21 | 277 | 19.3 | 27.4 | 0.00 | 0.00 | 0.00 | 22 | 1004.5 |
| 20260503235004 | 21 | 274 | 16.1 | 27.4 | 0.00 | 0.00 | 0.00 | 21 | 1004.6 |
| 20260503234504 | 21 | 305 | 19.3 | 27.4 | 0.00 | 0.00 | 0.00 | 21 | 1004.6 |
| 20260503234004 | 21 | 300 | 14.5 | 27.4 | 0.00 | 0.00 | 0.00 | 21 | 1004.7 |
| 20260503233506 | 21 | 320 | 16.1 | 29.0 | 0.00 | 0.00 | 0.00 | 22 | 1004.7 |
| 20260503233005 | 21 | 303 | 16.1 | 33.8 | 0.00 | 0.00 | 0.00 | 22 | 1004.8 |
| 20260503232505 | 21 | 295 | 19.3 | 33.8 | 0.00 | 0.00 | 0.00 | 23 | 1004.8 |
| 20260503232005 | 21 | 285 | 22.5 | 33.8 | 0.00 | 0.00 | 0.00 | 23 | 1004.8 |
| 20260503231505 | 21 | 274 | 17.7 | 27.4 | 0.00 | 0.00 | 0.00 | 22 | 1004.9 |
| 20260503231005 | 21 | 293 | 17.7 | 29.0 | 0.00 | 0.00 | 0.00 | 22 | 1005.0 |
| 20260503230006 | 21 | 282 | 22.5 | 32.2 | 0.00 | 0.00 | 0.00 | 21 | 1005.1 |
| 20260503225506 | 21 | 293 | 22.5 | 32.2 | 0.00 | 0.00 | 0.00 | 21 | 1005.1 |
| 20260503225005 | 21 | 276 | 19.3 | 32.2 | 0.00 | 0.00 | 0.00 | 20 | 1005.1 |
| 20260503224505 | 21 | 258 | 19.3 | 32.2 | 0.00 | 0.00 | 0.00 | 20 | 1005.2 |
| 20260503224005 | 21 | 272 | 20.9 | 32.2 | 0.00 | 0.00 | 0.00 | 20 | 1005.2 |
| 20260503223506 | 21 | 272 | 14.5 | 33.8 | 0.00 | 0.00 | 0.00 | 20 | 1005.3 |
| 20260503223005 | 21 | 276 | 17.7 | 33.8 | 0.00 | 0.00 | 0.00 | 20 | 1005.3 |
| 20260503222504 | 21 | 291 | 17.7 | 33.8 | 0.00 | 0.00 | 0.00 | 20 | 1005.3 |
| 20260503222005 | 21 | 296 | 17.7 | 32.2 | 0.00 | 0.00 | 0.00 | 19 | 1005.5 |
| 20260503221505 | 21 | 265 | 20.9 | 33.8 | 0.00 | 0.00 | 0.00 | 20 | 1005.5 |
| 20260503221006 | 21 | 258 | 20.9 | 33.8 | 0.00 | 0.00 | 0.00 | 20 | 1005.5 |
| 20260503220005 | 21 | 270 | 19.3 | 29.0 | 0.00 | 0.00 | 0.00 | 20 | 1005.7 |
| 20260503215505 | 21 | 275 | 20.9 | 29.0 | 0.00 | 0.00 | 0.00 | 20 | 1005.8 |